This is the latest recevied weather packets stored in our database for station/object KC5DP. If no packets are shown the sender has not sent any weather packets the latest 10 day(s).
| Time | Temp. | Humidity | Pressure | Rain* | Wind** | Luminosity | Snow |
|---|---|---|---|---|---|---|---|
| 1777648989 | 16.67° C | 98% | 1013.2 hPa | 0 mm | - | 44 W/m² | - |
| 1777648687 | 16.67° C | 98% | 1013.1 hPa | 0 mm | - | 43 W/m² | - |
| 1777648382 | 16.67° C | 98% | 1013.2 hPa | 0 mm | - | 40 W/m² | - |
| 1777648079 | 17.22° C | 98% | 1012.8 hPa | 0 mm | - | 48 W/m² | - |
| 1777647775 | 17.22° C | 98% | 1012.8 hPa | 0 mm | - | 65 W/m² | - |
| 1777647471 | 17.22° C | 98% | 1013 hPa | 0 mm | - | 59 W/m² | - |
| 1777647169 | 17.22° C | 98% | 1013 hPa | 0 mm | - | 48 W/m² | - |
| 1777646258 | 17.22° C | 98% | 1012.9 hPa | 0 mm | - | 43 W/m² | - |
| 1777645955 | 17.22° C | 98% | 1013 hPa | 0 mm | - | 45 W/m² | - |
| 1777645652 | 17.22° C | 98% | 1012.8 hPa | 0 mm | - | 38 W/m² | - |
| 1777645348 | 17.22° C | 98% | 1012.8 hPa | 0 mm | - | 38 W/m² | - |
| 1777645043 | 17.22° C | 98% | 1012.5 hPa | 0 mm | - | 43 W/m² | - |
| 1777644741 | 17.22° C | 98% | 1012.5 hPa | 0 mm | - | 47 W/m² | - |
| 1777644438 | 17.22° C | 99% | 1012.1 hPa | 0 mm | - | 60 W/m² | - |
| 1777644134 | 17.22° C | 99% | 1011.9 hPa | 0 mm | - | 56 W/m² | - |
| 1777643830 | 17.22° C | 99% | 1011.5 hPa | 0 mm | - | 93 W/m² | - |
| 1777643528 | 17.22° C | 99% | 1011.3 hPa | 0 mm | - | 68 W/m² | - |
| 1777643225 | 17.22° C | 99% | 1011.1 hPa | 0 mm | - | 76 W/m² | - |
| 1777642921 | 17.22° C | 99% | 1011.1 hPa | 0 mm | - | 72 W/m² | - |
| 1777642618 | 17.22° C | 99% | 1011.8 hPa | 0 mm | - | 59 W/m² | - |
| 1777642315 | 17.22° C | 99% | 1012.3 hPa | 0 mm | - | 55 W/m² | - |
| 1777642012 | 17.22° C | 99% | 1012.3 hPa | 0 mm | - | 55 W/m² | - |
| 1777641707 | 17.22° C | 99% | 1012.5 hPa | 0 mm | - | 50 W/m² | - |
| 1777641403 | 17.22° C | 99% | 1012.4 hPa | 0 mm | - | 54 W/m² | - |
| 1777641098 | 17.22° C | 99% | 1012.4 hPa | 0 mm | - | 52 W/m² | - |
* Rain latest hour (hover to see other rain measurements)
** Current wind speed in m/s (hover to see current wind gust speed)